CRN1007 TJVQ-TJPS

Flight info

Callsign CRN1007
Flight time 0h 18m
Altitude 10000
Route TUUNA
Aircraft PC12/L-SDFGRWY/S

Departure

Time 2026-04-24 20:26
Airport Antonio Rivera Rodriguez Airport (TJVQ)

Arrival

Time 2026-04-24 20:45
Airport Mercedita International Airport (TJPS)
Time Latitude Longitude Altitude Speed Heading
2026-04-24 20:22 18.13533 -65.48789 17 ft 0 kts 70°
2026-04-24 20:24 18.13548 -65.48760 16 ft 7 kts
2026-04-24 20:25 18.13611 -65.48761 16 ft 19 kts 348°
2026-04-24 20:25 18.13601 -65.48855 17 ft 38 kts 256°
2026-04-24 20:25 18.13481 -65.49363 25 ft 101 kts 257°
2026-04-24 20:25 18.13312 -65.50149 266 ft 127 kts 256°
2026-04-24 20:26 18.13098 -65.51223 281 ft 170 kts 257°
2026-04-24 20:26 18.12848 -65.52483 526 ft 185 kts 253°
2026-04-24 20:26 18.12437 -65.53822 827 ft 198 kts 249°
2026-04-24 20:26 18.11962 -65.55230 1215 ft 209 kts 250°
2026-04-24 20:27 18.11516 -65.56717 1588 ft 216 kts 252°
2026-04-24 20:27 18.11118 -65.58258 1961 ft 220 kts 253°
2026-04-24 20:27 18.10727 -65.59825 2338 ft 222 kts 253°
2026-04-24 20:27 18.10323 -65.61399 2707 ft 224 kts 253°
2026-04-24 20:28 18.09906 -65.62978 3080 ft 225 kts 252°
2026-04-24 20:28 18.09484 -65.64568 3443 ft 227 kts 252°
2026-04-24 20:28 18.09064 -65.66167 3805 ft 227 kts 253°
2026-04-24 20:28 18.08638 -65.67786 4014 ft 235 kts 253°
2026-04-24 20:29 18.08194 -65.69473 4012 ft 243 kts 253°
2026-04-24 20:29 18.07751 -65.71174 4013 ft 245 kts 253°
2026-04-24 20:29 18.07297 -65.72905 4010 ft 245 kts 252°
2026-04-24 20:29 18.06416 -65.74384 3995 ft 241 kts 218°
2026-04-24 20:30 18.05026 -65.75366 4005 ft 241 kts 211°
2026-04-24 20:30 18.03669 -65.76404 3996 ft 242 kts 219°
2026-04-24 20:30 18.02498 -65.77678 3997 ft 244 kts 230°
2026-04-24 20:30 18.01636 -65.79217 3997 ft 246 kts 244°
2026-04-24 20:31 18.01064 -65.80879 3994 ft 231 kts 250°
2026-04-24 20:31 18.00538 -65.82483 3988 ft 237 kts 247°
2026-04-24 20:31 17.99918 -65.84075 3988 ft 218 kts 245°
2026-04-24 20:31 17.99383 -65.85366 3981 ft 178 kts 244°
2026-04-24 20:32 17.98903 -65.86534 3979 ft 171 kts 245°
2026-04-24 20:32 17.98449 -65.87679 3986 ft 169 kts 245°
2026-04-24 20:32 17.98072 -65.88845 3988 ft 169 kts 260°
2026-04-24 20:32 17.98064 -65.90081 3989 ft 170 kts 269°
2026-04-24 20:33 17.98045 -65.91319 3997 ft 170 kts 266°
2026-04-24 20:33 17.97988 -65.92565 3992 ft 170 kts 266°
2026-04-24 20:33 17.97939 -65.93804 3997 ft 169 kts 265°
2026-04-24 20:33 17.97900 -65.95044 3995 ft 170 kts 266°
2026-04-24 20:34 17.97863 -65.96284 3997 ft 170 kts 266°
2026-04-24 20:34 17.97827 -65.97520 3997 ft 169 kts 266°
2026-04-24 20:34 17.97792 -65.98740 3997 ft 169 kts 266°
2026-04-24 20:34 17.97755 -65.99978 3997 ft 169 kts 266°
2026-04-24 20:35 17.97719 -66.01209 3996 ft 168 kts 265°
2026-04-24 20:35 17.97680 -66.02483 4018 ft 193 kts 266°
2026-04-24 20:35 17.97629 -66.04028 4025 ft 227 kts 267°
2026-04-24 20:35 17.97585 -66.05753 4021 ft 242 kts 266°
2026-04-24 20:36 17.97539 -66.07553 4004 ft 251 kts 268°
2026-04-24 20:36 17.97482 -66.09372 3997 ft 247 kts 267°
2026-04-24 20:36 17.97454 -66.11164 4003 ft 244 kts 269°
2026-04-24 20:36 17.97466 -66.12943 4004 ft 244 kts 269°
2026-04-24 20:37 17.97475 -66.14726 4008 ft 244 kts 269°
2026-04-24 20:37 17.97482 -66.16456 4015 ft 209 kts 268°
2026-04-24 20:37 17.97490 -66.17843 4008 ft 178 kts 268°
2026-04-24 20:37 17.97497 -66.19114 4000 ft 171 kts 268°
2026-04-24 20:38 17.97500 -66.20502 3987 ft 210 kts 268°
2026-04-24 20:38 17.97507 -66.22128 3994 ft 232 kts 269°
2026-04-24 20:38 17.97522 -66.23862 4001 ft 240 kts 269°
2026-04-24 20:38 17.97535 -66.25624 4003 ft 242 kts 270°
2026-04-24 20:39 17.97540 -66.27393 4005 ft 242 kts 269°
2026-04-24 20:39 17.97545 -66.29114 3975 ft 236 kts 270°
2026-04-24 20:39 17.97645 -66.30827 3875 ft 235 kts 274°
2026-04-24 20:39 17.97784 -66.32535 3776 ft 235 kts 275°
2026-04-24 20:40 17.97925 -66.34242 3678 ft 234 kts 274°
2026-04-24 20:40 17.98058 -66.35948 3581 ft 234 kts 274°
2026-04-24 20:40 17.98183 -66.37650 3481 ft 234 kts 273°
2026-04-24 20:40 17.98306 -66.39357 3395 ft 235 kts 274°
2026-04-24 20:41 17.98432 -66.41071 3307 ft 237 kts 273°
2026-04-24 20:41 17.98561 -66.42790 3210 ft 236 kts 274°
2026-04-24 20:41 17.98690 -66.44502 3100 ft 234 kts 273°
2026-04-24 20:41 17.98817 -66.46196 3002 ft 232 kts 273°
2026-04-24 20:42 17.98943 -66.47887 2901 ft 231 kts 273°
2026-04-24 20:42 17.99065 -66.49570 2807 ft 231 kts 273°
2026-04-24 20:42 17.99189 -66.51258 2710 ft 232 kts 273°
2026-04-24 20:42 17.99159 -66.52946 2613 ft 231 kts 261°
2026-04-24 20:43 17.98938 -66.54624 2508 ft 231 kts 262°
2026-04-24 20:43 17.98782 -66.56298 2382 ft 229 kts 265°
2026-04-24 20:43 17.98916 -66.57754 2127 ft 181 kts 287°
2026-04-24 20:43 17.99491 -66.58819 1832 ft 159 kts 308°
2026-04-24 20:44 18.00348 -66.59339 1362 ft 133 kts 348°
2026-04-24 20:44 18.01100 -66.59013 727 ft 112 kts 54°
2026-04-24 20:44 18.01314 -66.58302 361 ft 95 kts 94°
2026-04-24 20:44 18.01207 -66.57581 133 ft 105 kts 108°
2026-04-24 20:45 18.00999 -66.56871 56 ft 94 kts 107°
2026-04-24 20:45 18.00834 -66.56321 35 ft 41 kts 108°
2026-04-24 20:45 18.00799 -66.56206 10 ft 25 kts 107°
2026-04-24 20:45 18.00864 -66.56053 9 ft 24 kts 350°
2026-04-24 20:46 18.00931 -66.56230 10 ft 31 kts 295°
2026-04-24 20:46 18.01033 -66.56271 33 ft 0 kts 317°